User: anonymous   Login
Location: Caltech
(34.1382°N, 118.1253°W)
Time: 15:31:05
(UTC-07:00)
Language:

Cosmos 2333 Rocket - Orbit

View from above orbital plane
View from above orbital plane
View from above satellite
View from above satellite

Ground track
Ground track

The orbit data is extracted from the following two-line orbital elements,

1 24298U 96051B   16243.15782247  .00000115  00000-0  88649-4 0  9994
2 24298  70.8408 315.4802 0019258 253.8172 106.0829 14.12427110 30721
Epoch (UTC): 30 August 2016 03:47:15
Eccentricity: 0.0019258
inclination: 70.8408°
perigee height: 837 km
apogee height: 865 km
right ascension of ascending node: 315.4802°
argument of perigee: 253.8172°
revolutions per day: 14.12427110
mean anomaly at epoch: 106.0829°
orbit number at epoch: 3072

The dashed part of the orbit path shows where the satellite is in the earth's shadow,  

DLR